Hovedside
METAR-TAF:

METAR-TAF

Lufthavner :

Sandnessjøen lufthavn. Stokka

Sandnessjøen, Norge

breddegrad: 65-58N, lengdegrad: 012-28E, høyde over havet: 1 m

Gjeldene værobservasjon

Denne rapporten ble laget for 35 minutter siden, klokken 09:20 UTC
Vind 10 kt fra Øst-nordøst
Temperatur -2°C
Luftfuktighet 80%
Trykk 1030 hPa
Sikt 10 km eller mer
Få skyer i en høyde av 3500 ft

METAR: ENST 130920Z 07010KT 9999 FEW035 M02/M05 Q1030 RMK WIND 300FT 06011KT

Tid: 10:55 (09:55 UTC)


TAF: fraværende

Værobservasjoner og værvarsel for over 4000 flyplasser (METAR- og TAF-rapporter).

Tilgjengelige stasjoner er representert av de røde og gule prikkene på kartet.

Hold musepekeren over prikken for å se navnet på stasjonen.

Klikk så for å se værobservasjoner og -varsler.

For å forandre kartet kan du klikke på den grønne knappen med svart kryss for å zoome inn, på den grønne knappen med strek for å zoome ut, eller på de grønne pilene for å se tilstøtende kart.


METAR-TAF: